[Iaude] MPEC W71: 2022 MO [a=1.55,e=0.33,i=6.1,H=20.64]
    mpec at marsden.cfa.harvard.edu 
    mpec at marsden.cfa.harvard.edu
       
    Tue Nov 21 09:21:33 EST 2023
    
    
  
M.P.E.C. 2023-W71                             Issued 2023 November 21, 14:20 UT
     The Minor Planet Electronic Circulars contain information on unusual
         minor planets, routine data on comets and natural satellites,
         and occasional editorial announcements.  They are published
    on behalf of Division F of the International Astronomical Union by the
          Minor Planet Center, Smithsonian Astrophysical Observatory,
                          Cambridge, MA 02138, U.S.A.
			  
             Prepared using the Tamkin Foundation Computer Network
                              MPC at CFA.HARVARD.EDU
            URL https://www.minorplanetcenter.net/    ISSN 1523-6714
                                    2022 MO                                     
                           Revision to MPEC 2022-M34                            
Additional Observations:
     K22M00O KC2014 04 04.49615214 44 32.278-05 41 44.33         23.46GVEW071F51
     K22M00O KC2014 04 29.35153714 11 45.054-01 39 00.95         22.49GVEW071F51
     K22M00O KC2014 05 07.35895614 00 28.029-00 36 45.51         22.44GVEW071F51
     K22M00O  C2014 05 18.28769713 47 11.301+00 21 04.46         23.42GVEW071F51
     K22M00O  C2014 05 18.31019713 47 09.794+00 21 09.86         23.11GVEW071F51
     K22M00O  C2014 05 24.32042213 41 24.710+00 38 02.94         23.30GVEW071F51
     K22M00O  C2014 05 24.34496513 41 23.384+00 38 05.49         22.73GVEW071F51
     K22M00O  C2016 05 01.42886014 58 09.732-04 45 34.59         22.55GVEW071F51
     K22M00O  C2016 05 01.44154814 58 08.602-04 45 27.94         22.14GVEW071F51
     K22M00O  C2016 05 01.45424814 58 07.407-04 45 21.52         22.57GVEW071F51
     K22M00O  C2016 05 01.46696714 58 06.248-04 45 14.78         23.06GVEW071F51
     K22M00O  C2018 05 21.44038815 23 25.510-05 36 23.95         22.13GVEW071F51
     K22M00O  C2018 05 21.45218115 23 24.365-05 36 19.66         22.50GVEW071F51
     K22M00O  C2018 05 21.46392715 23 23.196-05 36 15.35         22.71GVEW071F51
     K22M00O  C2020 05 14.42859216 35 51.250-09 08 46.95         22.15GVEW071F51
     K22M00O  C2020 05 14.43521916 35 50.702-09 08 44.48         22.14GVEW071F52
     K22M00O  C2020 05 14.43954816 35 50.335-09 08 42.71         22.49GVEW071F51
     K22M00O  C2020 05 24.44088116 21 02.229-08 07 39.29         21.81GVEW071F52
     K22M00O  C2020 05 24.45275216 21 01.032-08 07 35.66         21.51GVEW071F52
     K22M00O  C2020 05 24.46461416 20 59.871-08 07 31.68         21.67GVEW071F52
     K22M00O  C2020 05 24.47644716 20 58.696-08 07 27.67         22.52GVEW071F52
     K22M00O  C2020 05 28.42467516 14 35.439-07 46 54.18         21.93wUEW071F51
     K22M00O  C2020 05 28.43694716 14 34.200-07 46 50.38         21.76wUEW071F51
     K22M00O  C2020 05 28.44922616 14 32.926-07 46 47.01         22.20wUEW071F51
     K22M00O  C2020 06 11.32206215 52 14.771-06 59 32.05         21.87GVEW071F52
     K22M00O  C2020 06 11.33260615 52 13.763-06 59 31.57         22.57GVEW071F52
     K22M00O  C2020 06 14.32417715 47 50.092-06 55 25.21         21.94GVEW071F52
     K22M00O  C2020 06 14.33608615 47 49.022-06 55 24.63         21.44GVEW071F52
     K22M00O  C2020 06 14.34868815 47 47.888-06 55 23.82         22.16GVEW071F52
     K22M00O  C2020 06 14.36122615 47 46.755-06 55 23.95         21.12GVEW071F52
     K22M00O  C2020 06 18.31348615 42 23.744-06 53 37.89         21.31GVEW071F52
     K22M00O  C2020 06 21.35518515 38 37.556-06 55 09.51         22.39GVEW071F52
     K22M00O  C2020 06 21.36758415 38 36.685-06 55 10.26         22.45GVEW071F52
     K22M00O KC2020 07 08.30426315 25 02.279-07 46 58.66         23.03GVEW071F52
Observer details:
F51 Pan-STARRS 1, Haleakala.  Observers J. Herman, T. Lowe, P. Minguez, A.
    Schultz, I. Smith, J. Bulger, M. Willman.  Measurers K. Chambers, T. de
    Boer, J. Fairlamb, H. Gao, M. Huber, C.-C. Lin, E. Magnier, Y.
    Ramanjooloo, R. Wainscoat, R. Weryk, S. Chastel, L. Denneau, H.
    Flewelling.  1.8-m Ritchey-Chretien + CCD.
F52 Pan-STARRS 2, Haleakala.  Observers J. Herman, T. Lowe, P. Minguez, A.
    Schultz, I. Smith.  Measurers K. Chambers, T. de Boer, J. Fairlamb, H.
    Gao, M. Huber, C.-C. Lin, E. Magnier, Y. Ramanjooloo, R. Wainscoat, R.
    Weryk.  1.8-m Ritchey-Chretien + CCD.
First and last observations above in comparison with prediction:
Residuals in seconds of arc, reference and Delta-T
140404 F51 28.4-  8.9-    200708 F52  7.7-  1.0-    MPO714648   -0.00 days
Orbital elements:
2022 MO                                                  Earth MOID = 0.0822 AU
Epoch 2023 Sept. 13.0 TT = JDT 2460200.5                Veres                   
M 141.89415              (2000.0)            P               Q                  
n   0.50966347     Peri.  237.91617     +0.89581452     -0.44084403             
a   1.5521977      Node   148.13943     +0.43519236     +0.84441980             
e   0.3332933      Incl.    6.12582     +0.09013302     +0.30432176             
P   1.93           H   20.64          G   0.15           U   2                  
Residuals in seconds of arc
140404 F51  0.2-  0.0     200614 F52  0.1-  0.1-    220622 568  0.0   0.0
140429 F51  0.1-  0.2-    200614 F52  0.2-  1.0-    220629 I52  0.7+  0.0
140507 F51  0.2-  0.1+    200618 F52  0.1+  0.4+    220629 I52  0.4+  0.3+
140518 F51  0.2+  0.2-    200621 F52  0.6-  0.0     220629 I52  0.1-  0.0
140518 F51  0.0   0.2+    200621 F52  0.2+  0.1-    220629 I52  0.0   0.1-
140524 F51  0.1-  0.0     200708 F52  0.3-  0.3-    220703 807  0.1-  0.0
140524 F51  0.1-  0.2-    220620 F52  0.2-  0.0     220703 807  0.2-  0.0
160501 F51  0.1+  0.1+    220620 F52  0.1+  0.0     220703 807  0.1-  0.2-
160501 F51  0.5+  0.2+    220620 F52  0.1+  0.1+    220704 H21  0.2+  0.9+
160501 F51  0.1+  0.0     220620 F52  0.0   0.1-    220704 H21  0.2-  0.6+
160501 F51  0.2+  0.2+    220620 F52  0.1+  0.0     220704 H21  0.1-  0.4+
180521 F51  0.0   0.1-    220620 F52  0.3+  0.0     220704 H21  0.0   0.4+
180521 F51  0.1-  0.0     220620 F52  0.2+  0.1-    220704 H21  0.1+  0.3-
180521 F51  0.5-  0.2+    220621 H21  0.3+  0.4+    220704 H21  0.1+  0.3-
200514 F51  0.1-  0.1+    220621 H21  0.1+  0.5+    220704 H21  0.3-  0.0
200514 F52  0.0   0.0     220621 H21  0.1+  0.3+    220706 H21  0.0   0.1+
200514 F51  0.1-  0.1+    220621 568  0.1-  0.0     220706 H21  0.2-  0.1+
200524 F52  0.1-  0.4+    220621 568  0.1-  0.0     220706 H21  0.1-  0.0
200524 F52  0.3-  0.1+    220621 568  0.0   0.0     220706 V06  0.1-  0.2+
200524 F52  0.0   0.1+    220621 568  0.0   0.0     220706 V06  0.0   0.1+
200524 F52  0.1+  0.2+    220621 568  0.1+  0.0     220706 V06  2.0+  1.0+
200528 F51  0.0   0.1-    220621 I52  0.3-  0.2+    220708 V06  0.1-  0.1+
200528 F51  0.3+  0.1+    220621 I52  0.3+  1.3-    220708 V06  0.0   0.0
200528 F51  0.0   0.1-    220622 H21  0.2+  0.2+    220708 V06  0.0   0.0
200611 F52  0.1+  0.5+    220622 H21  0.2-  0.0     220708 V06  0.1+  0.1+
200611 F52  0.1-  0.2-    220622 H21  0.0   0.3+    220817 807  0.1+  0.1-
200614 F52  0.0   0.1-    220622 568  0.0   0.0     220817 807  0.1-  0.0
200614 F52  0.0   0.2-    220622 568  0.0   0.0     220817 807  0.1+  0.0
Ephemeris:
2022 MO                  a,e,i = 1.55, 0.33, 6                   q = 1.0349
Date    TT    R. A. (2000) Decl.     Delta      r    Elong.  Phase     V
2023 10 22    13 18 40.4 -04 58 14   3.0339  2.0548     8.5     4.1    25.0
...
2023 11 06    13 47 20.7 -07 30 44   3.0014  2.0646    15.7     7.5    25.1
...
2023 11 14    14 02 42.3 -08 47 10   2.9723  2.0677    19.7     9.3    25.2
...
2023 11 20    14 14 15.5 -09 41 53   2.9452  2.0690    22.7    10.6    25.2
2023 11 21    14 16 11.2 -09 50 46   2.9402  2.0692    23.2    10.9    25.2
2023 11 22    14 18 06.9 -09 59 34   2.9351  2.0693    23.7    11.1    25.2
...
2023 11 28    14 29 42.3 -10 50 58   2.9020  2.0695    26.8    12.4    25.3
...
2023 12 06    14 45 12.4 -11 55 19   2.8510  2.0686    30.9    14.2    25.3
...
2023 12 21    15 14 22.9 -13 41 45   2.7352  2.0628    38.8    17.4    25.3
A. U. Tomatic                (C) Copyright 2023 MPC           M.P.E.C. 2023-W71
    
    
More information about the Iaude
mailing list